Home   Weather   Market Harborough   Past weeks
Flag for United Kingdom

Past Weather in Market Harborough, England, United Kingdom — Yesterday and Last 2 Weeks

Now
51 °F

Lots of rain. Overcast.


Feels Like: 47 °F
Forecast: 53 / 45 °F
Wind: 12 mph from Southwest

Location: Church Lawford

Current Time: Dec 6, 2019 at 6:09:39 am

Latest Report: Dec 6, 2019 at 5:00 am


Visibility: 4 mi

Pressure: 29.67 "Hg

Humidity: 95%

Dew Point: 50 °F

Location of Market HarboroughLocation

Past Weather in Market Harborough — Graph

°F

Market Harborough Temperature Yesterday

Maximum temperature yesterday: 49 °F (at 11:00 pm)
Minimum temperature yesterday: 35 °F (at 7:00 am)
Average temperature yesterday: 41 °F

High & Low Weather Summary for the Past Weeks

 TemperatureHumidityPressure
High55 °F (Nov 26, 2:00 pm)100% (Nov 24, 8:00 am)30.48 "Hg (Nov 24, 8:00 am)
Low27 °F (Dec 2, 3:00 am)77% (Dec 3, 1:00 pm)28.97 "Hg (Nov 27, 2:00 pm)
Average42 °F94%29.78 "Hg
* Reported Nov 21 5:00 am — Dec 6 5:00 am, Market Harborough. Weather by CustomWeather, © 2019

Note: Actual official high and low records may vary slightly from our data, if they occured in-between our weather recording intervals... More about our weather records

Market Harborough Weather History for the Previous 24 Hours

Scroll right to see more
 ConditionsComfort  
Time TempWeatherWind HumidityBarometerVisibility
5:00 am
Fri, Dec 6
51 °FLots of rain. Overcast.12 mph95%29.67 "Hg4 mi
4:00 am52 °FCool.12 mph91%29.69 "Hg31 mi
3:00 am52 °FCool.13 mph90%29.71 "Hg28 mi
2:00 am51 °FCool.13 mph91%29.73 "Hg31 mi
1:00 am50 °FCool.10 mph92%29.74 "Hg28 mi
11:00 pm
Thu, Dec 5
49 °FCool.16 mph91%29.78 "Hg31 mi
10:00 pm49 °FCool.13 mph89%29.80 "Hg31 mi
9:00 pm49 °FCool.14 mph86%29.81 "Hg31 mi
8:00 pm48 °FCool.15 mph86%29.84 "Hg22 mi
7:00 pm47 °FCool.16 mph84%29.86 "Hg22 mi
6:00 pm47 °FCool.16 mph84%29.87 "Hg16 mi
5:00 pm46 °FCool.13 mph85%29.89 "Hg14 mi
4:00 pm46 °FCool.12 mph88%29.91 "Hg13 mi
3:00 pm44 °FRain showers. Cloudy.9 mph91%29.93 "Hg9 mi
2:00 pm44 °FQuite cool.7 mph89%29.97 "Hg11 mi
1:00 pm44 °FQuite cool.7 mph90%30.01 "Hg9 mi
12:00 pm44 °FQuite cool.7 mph90%30.05 "Hg11 mi
11:00 am40 °FQuite cool.5 mph99%30.08 "Hg8 mi
10:00 am36 °FDuststorm.5 mph100%30.10 "Hg0 mi
9:00 am35 °FDuststorm.6 mph100%30.11 "Hg0 mi
8:00 am36 °FDuststorm.5 mph100%30.13 "Hg1 mi
7:00 am35 °FFog.3 mph98%30.12 "Hg2 mi
6:00 am35 °FFog.3 mph98%30.11 "Hg2 mi
Weather by CustomWeather, © 2019

See weather overview

Advertising